timestamp,surface_pressure_avg,surface_temp_avg,battery_voltage,lat,long
2022-05-23 00:09:00+00:00,211.7131,8.93,12.09,47.84626,-54.09684
2022-05-23 00:19:01+00:00,213.8664,8.99,12.09,47.84626,-54.09684
2022-05-23 00:29:01+00:00,214.6931,9.0,12.09,47.84626,-54.09684
2022-05-23 00:39:01+00:00,212.2181,9.0,12.09,47.84626,-54.09684
2022-05-23 00:49:01+00:00,214.9764,9.0,12.09,47.84626,-54.09684
2022-05-23 00:59:01+00:00,218.2864,9.0,12.09,47.84626,-54.09684
2022-05-23 01:09:01+00:00,217.8431,9.0,12.09,47.84626,-54.09684
2022-05-23 01:19:01+00:00,217.2532,9.0,12.09,47.84626,-54.09684
2022-05-23 01:29:01+00:00,221.5464,9.0,12.09,47.84626,-54.09684
2022-05-23 01:39:01+00:00,225.7014,9.0,12.09,47.84626,-54.09684
2022-05-23 01:49:01+00:00,230.6348,9.0,12.09,47.84626,-54.09684
2022-05-23 01:59:01+00:00,236.3448,9.0,12.09,47.84626,-54.09684
2022-05-23 02:09:01+00:00,242.5281,9.0,12.09,47.84626,-54.09684
2022-05-23 02:19:00+00:00,249.6697,9.0,12.09,47.84626,-54.09684
2022-05-23 02:29:00+00:00,258.3681,9.0,12.09,47.84626,-54.09684
2022-05-23 02:39:00+00:00,264.6297,9.0,12.09,47.84626,-54.09684
2022-05-23 02:49:00+00:00,268.2847,9.0,12.09,47.84626,-54.09684
2022-05-23 02:59:00+00:00,271.7547,9.0,12.09,47.84626,-54.09684
2022-05-23 03:09:00+00:00,280.4697,9.0,12.09,47.84626,-54.09684
2022-05-23 03:19:01+00:00,289.6514,9.0,12.09,47.84626,-54.09684
2022-05-23 03:29:01+00:00,297.8947,9.0,12.09,47.84626,-54.09684
2022-05-23 03:39:01+00:00,297.863,9.0,12.09,47.84626,-54.09684
2022-05-23 03:49:01+00:00,301.6964,9.0,12.09,47.84626,-54.09684
2022-05-23 03:59:01+00:00,308.443,9.0,12.09,47.84626,-54.09684
2022-05-23 04:09:01+00:00,314.3397,9.0,12.09,47.84626,-54.09684
2022-05-23 04:19:00+00:00,316.4997,9.0,12.09,47.84626,-54.09684
2022-05-23 04:29:00+00:00,321.0246,8.98,12.09,47.84626,-54.09684
2022-05-23 04:39:00+00:00,327.7864,8.96,12.09,47.84626,-54.09684
2022-05-23 04:49:00+00:00,331.9163,8.94,12.09,47.84626,-54.09684
2022-05-23 04:59:00+00:00,334.1364,8.9,12.09,47.84626,-54.09684
2022-05-23 05:09:00+00:00,338.30300000000005,8.9,12.09,47.84626,-54.09684
2022-05-23 05:19:01+00:00,342.7047,8.9,12.09,47.84626,-54.09684
2022-05-23 05:29:01+00:00,346.1213,8.9,12.09,47.84626,-54.09684
2022-05-23 05:39:01+00:00,347.293,8.9,12.09,47.84626,-54.09684
2022-05-23 05:49:01+00:00,348.9529,8.9,12.09,47.84626,-54.09684
2022-05-23 05:59:01+00:00,350.0197,8.9,12.09,47.84626,-54.09684
2022-05-23 06:09:01+00:00,349.2346,8.9,12.09,47.84626,-54.09684
2022-05-23 06:19:01+00:00,344.0062,8.9,12.09,47.84626,-54.09684
2022-05-23 06:29:01+00:00,338.0513,8.9,12.09,47.84626,-54.09684
2022-05-23 06:39:01+00:00,338.11300000000006,8.9,12.09,47.84626,-54.09684
2022-05-23 06:49:01+00:00,340.4430000000001,8.9,12.09,47.84626,-54.09684
2022-05-23 06:59:01+00:00,332.7379,8.9,12.09,47.84626,-54.09684
2022-05-23 07:09:01+00:00,325.2363,8.9,12.09,47.84626,-54.09684
2022-05-23 07:19:01+00:00,324.7012,8.9,12.09,47.84626,-54.09684
2022-05-23 07:29:01+00:00,321.1813,8.9,12.09,47.84626,-54.09684
2022-05-23 07:39:01+00:00,309.0446,8.89,12.09,47.84626,-54.09684
2022-05-23 07:49:01+00:00,304.1047,8.89,12.09,47.84626,-54.09684
2022-05-23 07:59:01+00:00,303.4314,8.89,12.09,47.84626,-54.09684
2022-05-23 08:09:01+00:00,296.7947,8.89,12.09,47.84626,-54.09684
2022-05-23 08:19:00+00:00,285.0081,8.88,12.09,47.84626,-54.09684
2022-05-23 08:29:00+00:00,281.8113,8.88,12.09,47.84626,-54.09684
2022-05-23 08:39:00+00:00,280.8281,8.89,12.09,47.84626,-54.09684
2022-05-23 08:49:00+00:00,269.6614,8.88,12.09,47.84626,-54.09684
2022-05-23 08:59:00+00:00,259.7298,8.87,12.09,47.84626,-54.09684
2022-05-23 09:09:00+00:00,255.34799999999998,8.87,12.09,47.84626,-54.09684
2022-05-23 09:19:01+00:00,252.4197,8.87,12.09,47.84626,-54.09684
2022-05-23 09:29:01+00:00,240.1881,8.86,12.09,47.84626,-54.09684
2022-05-23 09:39:01+00:00,230.5481,8.85,12.09,47.84626,-54.09684
2022-05-23 09:49:01+00:00,229.9381,8.85,12.09,47.84626,-54.09684
2022-05-23 09:59:01+00:00,225.1381,8.85,12.09,47.84626,-54.09684
2022-05-23 10:09:01+00:00,216.4764,8.85,12.09,47.84626,-54.09684
2022-05-23 10:19:00+00:00,215.2431,8.85,12.17,47.84626,-54.09684
2022-05-23 10:29:00+00:00,218.9048,8.85,12.17,47.84626,-54.09684
2022-05-23 10:39:00+00:00,215.6348,8.86,12.17,47.84626,-54.09684
2022-05-23 10:49:00+00:00,211.3714,8.88,12.17,47.84626,-54.09684
2022-05-23 10:59:00+00:00,214.4748,8.89,12.17,47.84626,-54.09684
2022-05-23 11:09:00+00:00,220.1515,8.9,12.17,47.84626,-54.09684
2022-05-23 11:19:00+00:00,220.4131,8.9,12.25,47.84626,-54.09684
2022-05-23 11:29:00+00:00,222.7231,8.9,12.25,47.84626,-54.09684
2022-05-23 11:39:00+00:00,224.5981,8.9,12.25,47.84626,-54.09684
2022-05-23 11:49:00+00:00,220.7448,8.9,12.25,47.84626,-54.09684
2022-05-23 11:59:00+00:00,220.4514,8.9,12.25,47.84626,-54.09684
2022-05-23 12:09:00+00:00,222.6097,8.9,12.25,47.84626,-54.09684
2022-05-23 12:19:01+00:00,223.4331,8.94,12.25,47.84626,-54.09684
2022-05-23 12:29:01+00:00,220.1914,8.99,12.25,47.84626,-54.09684
2022-05-23 12:39:01+00:00,218.0864,9.0,12.25,47.84626,-54.09684
2022-05-23 12:49:01+00:00,215.8581,9.0,12.25,47.84626,-54.09684
2022-05-23 12:59:01+00:00,213.7548,9.04,12.25,47.84626,-54.09684
2022-05-23 13:09:01+00:00,213.1398,9.05,12.25,47.84626,-54.09684
2022-05-23 13:19:01+00:00,212.3714,9.06,12.17,47.84626,-54.09684
2022-05-23 13:29:01+00:00,211.1797,9.08,12.17,47.84626,-54.09684
2022-05-23 13:39:01+00:00,210.8698,9.09,12.17,47.84626,-54.09684
2022-05-23 13:49:01+00:00,212.3814,9.09,12.17,47.84626,-54.09684
2022-05-23 13:59:01+00:00,215.8748,9.08,12.17,47.84626,-54.09684
2022-05-23 14:09:01+00:00,218.6048,9.09,12.17,47.84626,-54.09684
2022-05-23 14:19:00+00:00,222.4431,9.1,12.17,47.84626,-54.09684
2022-05-23 14:29:00+00:00,227.6514,9.09,12.17,47.84626,-54.09684
2022-05-23 14:39:00+00:00,230.2864,9.09,12.17,47.84626,-54.09684
2022-05-23 14:49:00+00:00,231.1964,9.1,12.17,47.84626,-54.09684
2022-05-23 14:59:00+00:00,233.4898,9.1,12.17,47.84626,-54.09684
2022-05-23 15:09:00+00:00,237.668,9.1,12.17,47.84626,-54.09684
2022-05-23 15:19:00+00:00,240.5714,9.1,12.09,47.84626,-54.09684
2022-05-23 15:29:00+00:00,244.9847,9.1,12.09,47.84626,-54.09684
2022-05-23 15:39:00+00:00,253.6331,9.1,12.09,47.84626,-54.09684
2022-05-23 15:49:00+00:00,262.1564,9.1,12.09,47.84626,-54.09684
2022-05-23 15:59:00+00:00,266.4664,9.1,12.09,47.84626,-54.09684
2022-05-23 16:09:00+00:00,272.0081,9.1,12.09,47.84626,-54.09684
2022-05-23 16:19:01+00:00,279.2631,9.1,12.09,47.84626,-54.09684
2022-05-23 16:29:01+00:00,283.3864,9.1,12.09,47.84626,-54.09684
2022-05-23 16:39:01+00:00,285.953,9.12,12.09,47.84626,-54.09684
2022-05-23 16:49:01+00:00,288.258,9.16,12.09,47.84626,-54.09684
2022-05-23 16:59:01+00:00,290.0231,9.17,12.09,47.84626,-54.09684
2022-05-23 17:09:01+00:00,292.778,9.18,12.09,47.84626,-54.09684
2022-05-23 17:19:01+00:00,296.2247,9.18,12.01,47.84626,-54.09684
2022-05-23 17:29:01+00:00,295.548,9.18,12.01,47.84626,-54.09684
2022-05-23 17:39:01+00:00,297.8397,9.19,12.01,47.84626,-54.09684
2022-05-23 17:49:01+00:00,306.7897,9.16,12.01,47.84626,-54.09684
2022-05-23 17:59:01+00:00,312.6363,9.15,12.01,47.84626,-54.09684
2022-05-23 18:09:01+00:00,311.1313,9.15,12.01,47.84626,-54.09684
2022-05-23 18:19:01+00:00,311.2762,9.16,12.01,47.84626,-54.09684
2022-05-23 18:29:01+00:00,313.448,9.17,12.01,47.84626,-54.09684
2022-05-23 18:39:01+00:00,313.4113,9.17,12.01,47.84626,-54.09684
2022-05-23 18:49:01+00:00,315.02299999999997,9.17,12.01,47.84626,-54.09684
2022-05-23 18:59:01+00:00,317.0313,9.18,12.01,47.84626,-54.09684
2022-05-23 19:09:01+00:00,316.078,9.18,12.01,47.84626,-54.09684
2022-05-23 19:19:01+00:00,312.8813,9.18,12.01,47.84626,-54.09684
2022-05-23 19:29:01+00:00,312.1796,9.18,12.01,47.84626,-54.09684
2022-05-23 19:39:01+00:00,307.2397,9.17,12.01,47.84626,-54.09684
2022-05-23 19:49:01+00:00,298.6647,9.17,12.01,47.84626,-54.09684
2022-05-23 19:59:01+00:00,296.3248,9.17,12.01,47.84626,-54.09684
2022-05-23 20:09:01+00:00,293.3531,9.14,12.01,47.84626,-54.09684
2022-05-23 20:19:01+00:00,282.5197,9.1,12.01,47.84626,-54.09684
2022-05-23 20:29:01+00:00,272.2381,9.1,12.01,47.84626,-54.09684
2022-05-23 20:39:01+00:00,272.8314,9.1,12.01,47.84626,-54.09684
2022-05-23 20:49:01+00:00,269.308,9.1,12.01,47.84626,-54.09684
2022-05-23 20:59:01+00:00,260.0531,9.1,12.01,47.84626,-54.09684
2022-05-23 21:09:01+00:00,255.3214,9.1,12.01,47.84626,-54.09684
2022-05-23 21:19:00+00:00,255.1114,9.1,12.01,47.84626,-54.09684
2022-05-23 21:29:00+00:00,247.6614,9.1,12.01,47.84626,-54.09684
2022-05-23 21:39:00+00:00,238.8014,9.1,12.01,47.84626,-54.09684
2022-05-23 21:49:00+00:00,235.9748,9.1,12.01,47.84626,-54.09684
2022-05-23 21:59:00+00:00,233.5815,9.1,12.01,47.84626,-54.09684
2022-05-23 22:09:00+00:00,229.4598,9.1,12.01,47.84626,-54.09684
2022-05-23 22:19:00+00:00,226.0565,9.09,12.01,47.84626,-54.09684
2022-05-23 22:29:00+00:00,223.5615,9.07,12.01,47.84626,-54.09684
2022-05-23 22:39:00+00:00,222.6464,9.06,12.01,47.84626,-54.09684
2022-05-23 22:49:00+00:00,222.3348,9.0,12.01,47.84626,-54.09684
2022-05-23 22:59:00+00:00,218.0064,9.0,12.01,47.84626,-54.09684
2022-05-23 23:09:00+00:00,216.3581,9.0,12.01,47.84626,-54.09684
2022-05-23 23:19:00+00:00,218.818,9.0,12.01,47.84626,-54.09684
2022-05-23 23:29:00+00:00,215.2698,8.99,12.01,47.84626,-54.09684
2022-05-23 23:39:00+00:00,209.7731,8.9,12.01,47.84626,-54.09684
2022-05-23 23:49:00+00:00,213.8297,8.9,12.01,47.84626,-54.09684
2022-05-23 23:59:00+00:00,214.4115,8.9,12.01,47.84626,-54.09684
